Weather in Mirny

Russia / Sakha (Yakutia) Republic     62°32′27″N   113°58′43″E
temp.,
°C
wind,
m/s
gust,
m/s
humid.,
%
clouds,
%
prec.,
mm/h
press.,
hPa
HPBL,
m
7 may, fri
fri700:00+1nw259999 0.3 1013121
03:00+2nnw2299100 0.3 101458
06:00+2nne2897100 0.1 1015258
09:00+3nne2695100 0.1 1016414
12:00+6nne347998 0.1 1016832
15:00+8nne456554 0.3 10161345
18:00+7nne446676 0.3 10171280
21:00+4ne26817 0.3 1018271
8 may, sat
sat800:00+1ene11865 0.0 101913
03:000ne11875 0.0 101910
06:000ne13908 0.0 1020108
09:00+3ene237291 0.0 1020695
12:00+3ne2365100 0.0 10191124
15:00+5e236099 0.0 10181282
18:00+5e335879 0.0 10181194
21:00+3e227079 0.0 101825
9 may, sun
sun900:00+1ne228098 0.0 101836
03:00+2ene1184100 0.0 101833
06:00+2ese248675 0.0 1018114
09:00+4e346794 0.0 1018776
12:00+7e235582 0.0 10171399
15:00+8e125098 0.1 10171539
18:00+9ne224894 0.1 10171560
21:00+7nne226093 0.1 101817
10 may, mon
mon1000:00+4n117040 0.0 101910
03:00+2nne227985 0.0 101915
06:00+3nne289496 0.1 1020254
09:00+2ne3796100 0.3 1021372
12:00+6ne446699 0.2 10211116
15:00+5nne4466100 0.2 10221043
18:00+6nne345395 0.0 10211449
21:00+3ne476983 0.0 1022754
11 may, tue
tue1100:00+1ne388289 0.0 1024443
03:000ne3788100 0.1 1024560
06:00−1ne489199 0.1 1024536
09:00+1ne5670100 0.2 10241037
12:00+2ne4662100 0.1 10241292
15:00+4ne5553100 0.1 10231595
18:00+3ne555497 0.1 10231411
21:00+1ne366697 0.1 1024629